User: anonymous   Login
Location: Home
(42.5358°N, 72.7383°W)
Time: 00:38:30
(UTC-05:00)
Language:

UKube-1 - Orbit

View from above orbital plane
View from above orbital plane
View from above satellite
View from above satellite

Ground track
Ground track

The orbit data is extracted from the following two-line orbital elements,

1 40074U 14037F   22024.63833121  .00001101  00000-0  13666-3 0  9995
2 40074  98.4014 257.6600 0005430  39.2096 320.9509 14.84851070408727
Epoch (UTC): 24 January 2022 15:19:11
Eccentricity: 0.0005430
inclination: 98.4014°
perigee height: 610 km
apogee height: 618 km
right ascension of ascending node: 257.6600°
argument of perigee: 39.2096°
revolutions per day: 14.84851070
mean anomaly at epoch: 320.9509°
orbit number at epoch: 40872

The dashed part of the orbit path shows where the satellite is in the earth's shadow,  

DLR